SPACEBEE-102 (48886 NORAD) Tracking and Keplerian Element Data

This shows tracking and keplerian element data for the satellite.

Feedback or suggestion? Click here.




ElementValue
Catalog48886
NameSPACEBEE-102
Epoch Orbit1395
Epoch Day269.14342864
Epoch Year2021
RAAN36.5636
Inclination97.525
Eccentricity0.0007615
Argument of Perigee301.9304
Mean Anonmoly58.1186
Mean Motion15.12202053
Decay Rate3.013E-05
L11 48886U 21059H 21269.14342864 .00003013 00000-0 17818-3 0 9998
L22 48886 97.5250 36.5636 0007615 301.9304 58.1186 15.12202053 13950

Live tracking and technical data element details for SPACEBEE-102 (NORAD 48886). SPACEBEE-102 can be tracked NOW for your location showing map with azimuth and elevation plus other details from your city location.

Track the satellite on the map from your city or location and see movement details for azimuth, elevation, latitude, longitude, range, height, and movement on the map or in text.







IsCatalogInMostPopularTable: catalog: 48886, numindb: 15
Update: records affected: 1



GetName: 48886 SPACEBEE-102

Hit Count: updated at: Sun, 26 Sep 2021 14:51:18 GMT